EET,Max TemperatureF,Mean TemperatureF,Min TemperatureF,Max Dew PointF,MeanDew PointF,Min DewpointF,Max Humidity, Mean Humidity, Min Humidity, Max Sea Level PressureIn, Mean Sea Level PressureIn, Min Sea Level PressureIn, Max VisibilityMiles, Mean VisibilityMiles, Min VisibilityMiles, Max Wind SpeedMPH, Mean Wind SpeedMPH, Max Gust SpeedMPH,PrecipitationIn, CloudCover, Events, WindDirDegrees
2012-12-1,82,72,61,48,40,34,52,34,15,30.09,30.05,30.01,6,3,2,12,5,,0.00,,,150
2012-12-2,81,71,61,55,44,36,68,39,21,30.09,30.06,30.04,6,2,1,50,9,,0.00,,,63
2012-12-3,81,70,59,50,45,39,63,42,14,30.05,29.98,29.89,6,3,2,10,4,,0.00,,,230
2012-12-4,71,68,64,59,49,37,78,53,24,29.92,29.89,29.86,6,5,2,20,11,,0.00,5,,257
2012-12-5,67,64,60,50,48,45,63,55,41,29.98,29.91,29.86,6,6,6,15,10,,0.00,6,,219
2012-12-6,68,62,55,48,46,44,72,56,34,30.04,30.00,29.95,6,5,4,18,12,,0.00,3,,189
2012-12-7,72,64,57,48,44,32,67,49,25,30.06,30.00,29.95,6,5,4,17,10,,0.00,2,,212
2012-12-8,70,62,55,50,44,41,63,50,26,30.10,30.06,30.01,6,6,4,10,7,,0.00,2,,111
2012-12-9,72,64,55,52,45,43,67,52,36,30.06,29.99,29.92,6,6,6,12,7,,0.00,,,65
2012-12-10,68,61,54,45,40,34,67,46,23,30.01,29.93,29.86,6,3,1,29,15,,0.00,5,,208
2012-12-11,66,58,51,45,39,34,58,46,31,30.13,30.08,30.01,6,4,4,18,13,,0.00,3,,216
2012-12-12,66,58,51,43,38,32,62,46,27,30.13,30.09,30.04,6,5,2,10,5,,0.00,1,,262
2012-12-13,67,58,50,50,40,30,72,48,31,30.18,30.13,30.09,6,5,4,12,6,,0.00,6,,255
2012-12-14,68,60,52,55,50,46,88,68,44,30.22,30.18,30.15,6,3,1,13,5,,0.00,5,,18
2012-12-15,65,58,51,46,44,39,76,60,36,30.22,30.17,30.12,6,4,1,16,6,,0.00,4,,5
2012-12-16,65,58,50,48,44,43,76,60,35,30.21,30.17,30.15,6,4,2,10,5,,0.00,3,,344
2012-12-17,67,59,51,51,47,43,76,62,47,30.16,30.10,30.06,6,6,6,9,5,,0.00,3,,190
2012-12-18,70,62,54,45,41,37,63,46,25,30.06,30.00,29.95,6,4,4,22,13,,0.00,,,186
2012-12-19,68,62,57,46,39,34,49,40,22,30.01,29.95,29.89,6,6,6,18,15,,0.00,3,,191
2012-12-20,64,60,55,45,39,34,67,47,24,29.89,29.86,29.83,6,3,2,29,20,,0.00,6,,225
2012-12-21,65,58,51,45,41,36,63,52,36,30.04,29.96,29.89,6,6,4,16,12,,0.00,3,,215
2012-12-22,64,58,51,41,39,37,62,49,28,30.09,30.04,30.01,6,5,4,17,11,,0.00,1,,180
2012-12-23,68,60,51,39,35,34,51,40,22,30.05,29.99,29.95,6,6,6,20,11,,0.00,,,177
2012-12-24,61,58,54,45,39,31,59,48,24,30.09,29.97,29.92,6,6,6,21,12,,0.00,6,,200
2012-12-25,68,60,52,54,49,43,82,66,49,30.27,30.15,30.06,6,5,2,14,6,,0.00,5,,298
2012-12-26,66,58,51,55,51,48,94,73,47,30.30,30.26,30.24,6,3,1,10,4,,0.00,3,,354
2012-12-27,68,60,52,54,49,46,88,69,44,30.27,30.20,30.15,6,4,2,10,5,,0.00,,,45
2012-12-28,68,60,51,55,50,48,94,74,43,30.16,30.09,30.04,6,3,1,10,5,,0.00,3,,37
2012-12-29,66,59,52,54,47,41,88,65,40,30.09,30.04,30.01,6,4,1,8,4,,0.00,2,,27
2012-12-30,68,60,52,51,44,41,72,56,40,30.13,30.09,30.06,6,4,2,10,6,,0.00,,,65
2012-12-31,68,60,51,54,48,45,88,66,33,30.13,30.09,30.06,6,5,4,10,8,,0.00,4,,50